Location: Gauravaram
(16.6995°N, 80.5417°E)
Time: 10:32:40
(UTC+00:00)

Cosmos 1943 Rocket - Pass Details

Date: 03 August 2024
Orbit: 813 x 841 km, 71.0° (Epoch: 14 September)

Event Time Altitude Azimuth Distance (km) Brightness Sun altitude
Rises 23:13:57 0° 358° (N) 3,329 5.6 -15.4°
Reaches altitude 10° 23:16:39 10° 9° (N) 2,396 5.0 -14.8°
Maximum altitude 23:21:27 31° 70° (ENE) 1,392 4.2 -13.8°
Drops below altitude 10° 23:26:14 10° 132° (SE) 2,394 4.9 -12.7°
Sets 23:28:54 0° 142° (SE) 3,327 5.5 -12.1°
